N2NET Weather Reports


time (UTC)temp
F
wind
direction
speed
knots
gust
knots
rain 1hr
in
rain 24hr
in
rain mn
in
humidity
%
barometer
mb
20200531000112 66 313 8.7 20.0 0.00 0.07 0.07 62 1011.9
20200530234657 67 323 2.6 4.3 0.00 0.07 0.07 60 1011.3
20200530233031 69 270 0.0 6.1 0.00 0.07 0.07 57 1011.0
20200530231528 69 305 0.9 3.5 0.00 0.07 0.07 54 1010.9
20200530230019 70 344 2.6 7.8 0.00 0.07 0.07 51 1010.8
20200530224516 70 342 0.9 5.2 0.00 0.07 0.07 50 1010.7
20200530223027 71 301 0.0 10.4 0.00 0.07 0.07 49 1010.6
20200530221504 71 280 2.6 9.6 0.00 0.07 0.07 49 1010.7
20200530220248 71 301 2.6 7.0 0.00 0.07 0.07 47 1010.6
20200530214755 71 309 2.6 6.1 0.00 0.07 0.07 47 1010.5
20200530213121 72 296 1.7 7.0 0.00 0.07 0.07 46 1010.5
20200530211622 73 313 3.5 8.7 0.00 0.07 0.07 42 1010.5
20200530210107 73 271 3.5 10.4 0.00 0.07 0.07 42 1010.5
20200530204732 74 314 2.6 7.8 0.00 0.07 0.07 41 1010.5
20200530203142 75 162 3.5 10.4 0.00 0.07 0.07 41 1010.5
20200530201627 75 307 2.6 8.7 0.00 0.07 0.07 41 1010.5
20200530200052 74 284 3.5 10.4 0.00 0.07 0.07 44 1010.6
20200530194523 74 295 1.7 11.3 0.00 0.07 0.07 41 1010.8
20200530193017 74 316 4.3 8.7 0.00 0.07 0.07 44 1010.9
20200530191548 74 267 1.7 7.8 0.00 0.07 0.07 44 1010.9
20200530190010 73 326 3.5 9.6 0.00 0.07 0.07 43 1010.9
20200530184510 73 312 5.2 11.3 0.00 0.07 0.07 43 1011.2
20200530183213 73 242 5.2 13.0 0.00 0.07 0.07 43 1011.2
20200530181936 73 298 7.0 12.2 0.00 0.07 0.07 44 1011.3
20200530180146 73 278 3.5 11.3 0.00 0.07 0.07 46 1011.2
20200530174605 73 294 1.7 7.8 0.00 0.07 0.07 48 1011.2
20200530173132 73 221 1.7 7.0 0.00 0.07 0.07 50 1011.2
20200530171657 72 295 2.6 7.8 0.00 0.07 0.07 47 1011.1
20200530170044 71 307 4.3 7.8 0.00 0.07 0.07 50 1011.3
20200530164548 71 351 2.6 11.3 0.00 0.07 0.07 50 1011.4
20200530163104 70 229 3.5 9.6 0.00 0.07 0.07 52 1011.7
20200530161524 69 267 1.7 9.6 0.00 0.07 0.07 55 1011.9
20200530160014 69 324 0.0 8.7 0.00 0.07 0.07 59 1011.9
20200530154518 69 337 2.6 7.8 0.00 0.07 0.07 55 1012.2
20200530153011 68 344 4.3 12.2 0.00 0.07 0.07 55 1012.5
20200530151625 67 309 3.5 9.6 0.00 0.07 0.07 58 1012.3
20200530150214 66 302 2.6 10.4 0.00 0.07 0.07 61 1012.7
20200530144731 66 320 2.6 10.4 0.00 0.07 0.07 61 1012.8
20200530143053 66 285 1.7 10.4 0.00 0.07 0.07 62 1012.8
20200530141605 65 23 4.3 10.4 0.00 0.07 0.07 63 1012.8
20200530140100 64 315 5.2 13.0 0.00 0.07 0.07 63 1012.8
20200530134628 64 340 6.1 14.8 0.00 0.07 0.07 64 1012.9
20200530133059 64 344 4.3 13.0 0.00 0.07 0.07 65 1012.6
20200530131548 63 248 2.6 7.8 0.00 0.07 0.07 67 1012.7
20200530130040 63 276 2.6 12.2 0.00 0.07 0.07 67 1012.6
20200530124523 62 307 7.0 13.9 0.00 0.07 0.07 67 1012.4
20200530123024 62 288 6.1 11.3 0.00 0.07 0.07 66 1012.6
20200530121510 62 309 4.3 13.9 0.00 0.07 0.07 68 1012.6
20200530120010 63 315 8.7 13.9 0.00 0.12 0.07 68 1012.1
20200530114612 62 9 1.7 9.6 0.00 0.12 0.07 69 1012.2
20200530113055 62 321 2.6 9.6 0.00 0.12 0.07 69 1011.7
20200530111639 61 297 2.6 13.0 0.00 0.12 0.07 68 1011.9
20200530110226 62 226 0.9 7.0 0.00 0.12 0.07 66 1011.9
20200530104608 61 289 2.6 4.3 0.00 0.12 0.07 63 1011.7
20200530103131 62 301 3.5 8.7 0.00 0.12 0.07 64 1011.8
20200530101609 62 314 2.6 10.4 0.00 0.12 0.07 59 1011.6
20200530100043 62 337 4.3 12.2 0.00 0.12 0.07 50 1011.4
20200530094530 63 25 3.5 13.9 0.00 0.12 0.07 37 1011.0
20200530093025 64 307 4.3 13.9 0.00 0.12 0.07 22 1011.0
20200530091545 63 284 0.9 6.1 0.00 0.12 0.07 1 1010.5
20200530090016 63 285 0.9 3.5 0.00 0.12 0.07 1 1010.4
20200530084504 63 312 0.9 4.3 0.00 0.12 0.07 1 1010.3
20200530083222 63 149 0.0 3.5 0.00 0.12 0.07 1 1010.3
20200530081712 62 276 1.7 6.1 0.00 0.12 0.07 1 1010.0
20200530080115 63 277 0.0 3.5 0.00 0.12 0.07 1 1010.2
20200530074639 63 284 4.3 8.7 0.00 0.13 0.07 1 1010.2